AUA26 RJAA-LOWW

Flight info

Callsign AUA26
Flight time N/A
Altitude 30000
Route ENPAR Y16 SAPRA G585 SEL Y697 AGAVO/K0917S0920 A591 IKEKA W4 TEKAM/K0907S0980 W4 HCH W200 DOVIV W55 PAMRU W34 VYK B215 LEBOM W104 VEXEB W47 IDSOT W48 DKO W66 NUKTI B215 IRPEP/K0906S1040 B215 FKG A368 SARIN/K0906F340 N161 MASAV/K0895F360 N161 GASBI/N0483F360 N161 LEYLA N644 LAGAS DCT SARPI UM10 OLUPO DCT CRM UL746 ODERO DCT OPT DCT SOKRU DCT BALUX DCT TORNO DCT NATEX NATEX2W
Aircraft B77W/H-SDE1E2E3FGHIJ2J3J4J5M1RWXY/LB1D1

Departure

Time N/A
Airport Narita International Airport (RJAA)

Arrival

Time 2026-04-24 16:26
Airport Vienna International Airport (LOWW)
Time Latitude Longitude Altitude Speed Heading
2026-04-24 13:14 45.04728 55.13134 33746 ft 426 kts 227°
2026-04-24 13:14 44.96022 55.01885 33700 ft 427 kts 225°
2026-04-24 13:14 44.78903 54.79860 33767 ft 428 kts 225°
2026-04-24 13:15 44.62347 54.55931 33720 ft 426 kts 236°
2026-04-24 13:15 44.59122 54.49396 33330 ft 426 kts 236°
2026-04-24 13:15 44.57423 54.45980 34010 ft 424 kts 236°
2026-04-24 13:16 44.55746 54.42618 34568 ft 417 kts 236°
2026-04-24 13:16 44.54093 54.39307 34817 ft 418 kts 236°
2026-04-24 13:16 44.52417 54.35958 34988 ft 419 kts 236°
2026-04-24 13:16 44.50730 54.32588 35143 ft 421 kts 236°
2026-04-24 13:17 44.49048 54.29234 35372 ft 421 kts 236°
2026-04-24 13:17 44.47376 54.25906 35556 ft 421 kts 236°
2026-04-24 13:17 44.43980 54.19151 35696 ft 425 kts 236°
2026-04-24 13:18 44.40604 54.12456 35775 ft 423 kts 236°
2026-04-24 13:18 44.37203 54.05725 35776 ft 421 kts 236°
2026-04-24 13:19 44.33966 53.99334 35791 ft 420 kts 236°
2026-04-24 13:19 44.30584 53.92669 35787 ft 419 kts 236°
2026-04-24 13:20 44.27219 53.86054 35791 ft 419 kts 236°
2026-04-24 13:20 44.23833 53.79412 35792 ft 420 kts 236°
2026-04-24 13:21 44.20452 53.72798 35790 ft 420 kts 236°
2026-04-24 13:21 44.17051 53.66157 35793 ft 421 kts 236°
2026-04-24 13:22 44.13631 53.59495 35793 ft 422 kts 235°
2026-04-24 13:22 44.10225 53.52875 35795 ft 422 kts 235°
2026-04-24 13:23 44.06822 53.46276 35788 ft 422 kts 235°
2026-04-24 13:23 44.03388 53.39632 35799 ft 422 kts 235°
2026-04-24 13:24 43.99986 53.33065 35788 ft 422 kts 235°
2026-04-24 13:24 43.96566 53.26477 35791 ft 422 kts 235°
2026-04-24 13:25 43.93120 53.19853 35790 ft 422 kts 235°
2026-04-24 13:25 43.89684 53.13262 35797 ft 422 kts 235°
2026-04-24 13:26 43.86240 53.06672 35794 ft 422 kts 235°
2026-04-24 13:26 43.82820 53.00136 35799 ft 421 kts 235°
2026-04-24 13:27 43.79527 52.93855 35789 ft 421 kts 235°
2026-04-24 13:27 43.76077 52.87287 35791 ft 421 kts 235°
2026-04-24 13:28 43.72627 52.80731 35788 ft 421 kts 235°
2026-04-24 13:28 43.69190 52.74214 35797 ft 421 kts 235°
2026-04-24 13:29 43.65729 52.67670 35772 ft 421 kts 235°
2026-04-24 13:29 43.62260 52.61163 35791 ft 422 kts 234°
2026-04-24 13:30 43.58771 52.54651 35794 ft 423 kts 234°
2026-04-24 13:30 43.55257 52.48101 35786 ft 424 kts 234°
2026-04-24 13:31 43.51741 52.41557 35792 ft 425 kts 234°
2026-04-24 13:31 43.48228 52.35032 35789 ft 426 kts 234°
2026-04-24 13:32 43.44708 52.28508 35793 ft 426 kts 234°
2026-04-24 13:32 43.41159 52.21945 35802 ft 425 kts 234°
2026-04-24 13:33 43.37620 52.15415 35795 ft 425 kts 234°
2026-04-24 13:33 43.34083 52.08904 35803 ft 425 kts 234°
2026-04-24 13:34 43.30568 52.02448 35799 ft 424 kts 234°
2026-04-24 13:34 43.27165 51.96209 35805 ft 424 kts 234°
2026-04-24 13:35 43.23633 51.89749 35808 ft 423 kts 234°
2026-04-24 13:35 43.20091 51.83286 35811 ft 422 kts 234°
2026-04-24 13:36 43.16562 51.76859 35810 ft 422 kts 234°
2026-04-24 13:36 43.13052 51.70479 35814 ft 422 kts 234°
2026-04-24 13:37 43.09518 51.64072 35810 ft 421 kts 234°
2026-04-24 13:37 43.05983 51.57675 35811 ft 421 kts 234°
2026-04-24 13:38 43.02442 51.51283 35821 ft 421 kts 234°
2026-04-24 13:38 42.98910 51.44919 35816 ft 421 kts 234°
2026-04-24 13:39 42.95360 51.38538 35815 ft 421 kts 234°
2026-04-24 13:39 42.91816 51.32181 35821 ft 421 kts 234°
2026-04-24 13:40 42.88263 51.25820 35822 ft 421 kts 234°
2026-04-24 13:40 42.84728 51.19507 35814 ft 421 kts 234°
2026-04-24 13:41 42.81162 51.13150 35828 ft 423 kts 234°
2026-04-24 13:41 42.77572 51.06765 35831 ft 425 kts 234°
2026-04-24 13:42 42.74556 51.01411 35835 ft 426 kts 234°
2026-04-24 13:42 42.71091 50.95272 35827 ft 427 kts 234°
2026-04-24 13:43 42.67466 50.88864 35827 ft 427 kts 234°
2026-04-24 13:43 42.63845 50.82476 35826 ft 426 kts 234°
2026-04-24 13:44 42.60225 50.76104 35830 ft 425 kts 234°
2026-04-24 13:44 42.56641 50.69807 35827 ft 424 kts 234°
2026-04-24 13:45 42.53032 50.63480 35830 ft 423 kts 234°
2026-04-24 13:45 42.49432 50.57181 35830 ft 423 kts 234°
2026-04-24 13:46 42.45826 50.50883 35833 ft 422 kts 234°
2026-04-24 13:46 42.42245 50.44576 35826 ft 421 kts 235°
2026-04-24 13:47 42.38863 50.38175 35828 ft 421 kts 236°
2026-04-24 13:47 42.35489 50.31704 35824 ft 421 kts 236°
2026-04-24 13:48 42.32096 50.25258 35829 ft 421 kts 236°
2026-04-24 13:48 42.28686 50.18825 35829 ft 421 kts 236°
2026-04-24 13:49 42.25260 50.12388 35831 ft 422 kts 236°
2026-04-24 13:49 42.21833 50.05964 35823 ft 422 kts 236°
2026-04-24 13:50 42.18502 49.99732 35830 ft 422 kts 236°
2026-04-24 13:50 42.15077 49.93335 35831 ft 423 kts 236°
2026-04-24 13:51 42.11650 49.86950 35831 ft 423 kts 236°
2026-04-24 13:51 42.08199 49.80532 35833 ft 423 kts 236°
2026-04-24 13:52 42.04738 49.74111 35833 ft 423 kts 236°
2026-04-24 13:52 42.01279 49.67706 35833 ft 423 kts 236°
2026-04-24 13:53 41.97829 49.61332 35830 ft 422 kts 236°
2026-04-24 13:53 41.94374 49.54960 35824 ft 421 kts 236°
2026-04-24 13:54 41.90949 49.48659 35834 ft 420 kts 236°
2026-04-24 13:54 41.87496 49.42316 35840 ft 420 kts 236°
2026-04-24 13:55 41.84049 49.35997 35854 ft 420 kts 236°
2026-04-24 13:55 41.80602 49.29683 35843 ft 419 kts 236°
2026-04-24 13:56 41.77343 49.23213 35841 ft 417 kts 238°
2026-04-24 13:56 41.74165 49.16706 35840 ft 417 kts 238°
2026-04-24 13:57 41.70974 49.10244 35837 ft 416 kts 238°
2026-04-24 13:57 41.67782 49.03841 35842 ft 416 kts 238°
2026-04-24 13:58 41.64672 48.97626 35842 ft 416 kts 238°
2026-04-24 13:58 41.61451 48.91199 35842 ft 416 kts 238°
2026-04-24 13:59 41.58228 48.84780 35846 ft 416 kts 238°
2026-04-24 13:59 41.54996 48.78356 35842 ft 417 kts 238°
2026-04-24 14:00 41.51742 48.71959 35847 ft 417 kts 236°
2026-04-24 14:00 41.48244 48.65777 35840 ft 418 kts 234°
2026-04-24 14:01 41.44723 48.59609 35837 ft 418 kts 235°
2026-04-24 14:01 41.41240 48.53404 35830 ft 418 kts 236°
2026-04-24 14:02 41.37840 48.47157 35820 ft 418 kts 236°
2026-04-24 14:02 41.34431 48.40866 35825 ft 419 kts 236°
2026-04-24 14:03 41.30997 48.34561 35815 ft 421 kts 236°
2026-04-24 14:03 41.27537 48.28236 35814 ft 423 kts 236°
2026-04-24 14:04 41.24068 48.21910 35805 ft 424 kts 236°
2026-04-24 14:04 41.20577 48.15550 35825 ft 427 kts 236°
2026-04-24 14:05 41.17048 48.09137 35822 ft 432 kts 236°
2026-04-24 14:05 41.13555 48.02686 35839 ft 431 kts 242°
2026-04-24 14:06 41.12463 47.99278 35854 ft 429 kts 255°
2026-04-24 14:06 41.11901 47.95375 35878 ft 430 kts 263°
2026-04-24 14:06 41.11845 47.91446 35831 ft 426 kts 274°
2026-04-24 14:06 41.12388 47.87586 35871 ft 424 kts 278°
2026-04-24 14:07 41.13669 47.79930 35833 ft 427 kts 278°
2026-04-24 14:07 41.14934 47.72220 35842 ft 428 kts 278°
2026-04-24 14:08 41.16162 47.64467 35855 ft 429 kts 277°
2026-04-24 14:08 41.17365 47.56718 35866 ft 428 kts 277°
2026-04-24 14:09 41.18557 47.48996 35880 ft 427 kts 277°
2026-04-24 14:09 41.19741 47.41288 35867 ft 425 kts 277°
2026-04-24 14:10 41.20914 47.33626 35908 ft 421 kts 277°
2026-04-24 14:10 41.22049 47.26179 35903 ft 418 kts 277°
2026-04-24 14:11 41.23191 47.18639 35921 ft 415 kts 277°
2026-04-24 14:12 41.24885 47.07396 35915 ft 413 kts 277°
2026-04-24 14:12 41.25996 46.99975 35945 ft 413 kts 277°
2026-04-24 14:13 41.27072 46.92752 35952 ft 415 kts 277°
2026-04-24 14:13 41.28185 46.85258 35961 ft 415 kts 277°
2026-04-24 14:14 41.29299 46.77730 35961 ft 416 kts 277°
2026-04-24 14:14 41.30926 46.66365 35967 ft 416 kts 276°
2026-04-24 14:15 41.31976 46.58794 36006 ft 416 kts 276°
2026-04-24 14:15 41.33025 46.51217 35989 ft 416 kts 276°
2026-04-24 14:16 41.34073 46.43636 35988 ft 416 kts 276°
2026-04-24 14:17 41.35636 46.32259 35998 ft 416 kts 276°
2026-04-24 14:17 41.37184 46.20909 36011 ft 417 kts 276°
2026-04-24 14:18 41.38212 46.13329 36007 ft 416 kts 276°
2026-04-24 14:18 41.39235 46.05742 36002 ft 415 kts 276°
2026-04-24 14:19 41.40203 45.98526 36005 ft 413 kts 276°
2026-04-24 14:19 41.41208 45.90994 36006 ft 412 kts 276°
2026-04-24 14:20 41.42208 45.83470 36018 ft 412 kts 276°
2026-04-24 14:20 41.43201 45.75950 36004 ft 411 kts 276°
2026-04-24 14:21 41.44187 45.68440 36001 ft 411 kts 276°
2026-04-24 14:21 41.45169 45.60928 35994 ft 411 kts 276°
2026-04-24 14:22 41.46140 45.53460 36002 ft 412 kts 276°
2026-04-24 14:23 41.47600 45.42159 36007 ft 413 kts 275°
2026-04-24 14:23 41.48499 45.34598 36002 ft 411 kts 273°
2026-04-24 14:24 41.49129 45.27026 35993 ft 411 kts 272°
2026-04-24 14:24 41.49733 45.19459 35999 ft 410 kts 272°
2026-04-24 14:25 41.50239 45.13166 35992 ft 411 kts 272°
2026-04-24 14:25 41.50952 45.04318 36013 ft 410 kts 272°
2026-04-24 14:26 41.51540 44.96989 36005 ft 410 kts 272°
2026-04-24 14:26 41.52142 44.89432 36003 ft 410 kts 272°
2026-04-24 14:27 41.52735 44.81915 35994 ft 409 kts 272°
2026-04-24 14:27 41.53326 44.74348 35994 ft 409 kts 272°
2026-04-24 14:28 41.53911 44.66809 36002 ft 408 kts 272°
2026-04-24 14:28 41.54393 44.60534 35995 ft 409 kts 272°
2026-04-24 14:29 41.54968 44.52987 35991 ft 409 kts 272°
2026-04-24 14:29 41.55539 44.45438 36002 ft 409 kts 272°
2026-04-24 14:30 41.56106 44.37883 35999 ft 409 kts 272°
2026-04-24 14:30 41.56670 44.30309 35998 ft 409 kts 272°
2026-04-24 14:31 41.57192 44.22723 36022 ft 410 kts 269°
2026-04-24 14:31 41.57250 44.15133 36016 ft 409 kts 267°
2026-04-24 14:32 41.57256 44.07533 36016 ft 409 kts 267°
2026-04-24 14:32 41.57264 43.99966 36020 ft 408 kts 267°
2026-04-24 14:33 41.57272 43.92676 36010 ft 409 kts 267°
2026-04-24 14:33 41.57278 43.85096 36027 ft 408 kts 267°
2026-04-24 14:34 41.57280 43.77528 36034 ft 408 kts 267°
2026-04-24 14:34 41.57277 43.69950 36020 ft 407 kts 267°
2026-04-24 14:35 41.57267 43.62381 36028 ft 409 kts 267°
2026-04-24 14:35 41.57253 43.54771 36036 ft 410 kts 266°
2026-04-24 14:36 41.57234 43.47184 36026 ft 411 kts 266°
2026-04-24 14:36 41.57211 43.39508 36022 ft 411 kts 266°
2026-04-24 14:37 41.57182 43.31930 36026 ft 410 kts 266°
2026-04-24 14:37 41.57148 43.24258 36037 ft 411 kts 266°
2026-04-24 14:38 41.57109 43.16680 36017 ft 410 kts 266°
2026-04-24 14:38 41.57067 43.09070 36026 ft 409 kts 266°
2026-04-24 14:39 41.57017 43.01476 36000 ft 407 kts 266°
2026-04-24 14:39 41.56965 42.94222 36033 ft 407 kts 266°
2026-04-24 14:40 41.56906 42.86652 36022 ft 409 kts 266°
2026-04-24 14:40 41.56842 42.79026 36027 ft 410 kts 266°
2026-04-24 14:41 41.56774 42.71402 36039 ft 411 kts 266°
2026-04-24 14:41 41.56701 42.63802 36042 ft 411 kts 266°
2026-04-24 14:42 41.56621 42.56158 36053 ft 412 kts 266°
2026-04-24 14:42 41.56536 42.48502 36047 ft 413 kts 266°
2026-04-24 14:43 41.56446 42.40810 36046 ft 414 kts 266°
2026-04-24 14:43 41.56353 42.33146 36059 ft 414 kts 266°
2026-04-24 14:44 41.56254 42.25454 36080 ft 412 kts 266°
2026-04-24 14:44 41.56150 42.17803 36027 ft 412 kts 266°
2026-04-24 14:45 41.56039 42.10168 36073 ft 410 kts 266°
2026-04-24 14:45 41.55922 42.02540 36049 ft 413 kts 266°
2026-04-24 14:46 41.55806 41.95129 36042 ft 413 kts 266°
2026-04-24 14:46 41.55683 41.87457 36038 ft 416 kts 266°
2026-04-24 14:47 41.55552 41.79717 36041 ft 417 kts 266°
2026-04-24 14:47 41.55416 41.72001 36046 ft 418 kts 266°
2026-04-24 14:48 41.55273 41.64206 36054 ft 418 kts 266°
2026-04-24 14:48 41.55127 41.56452 36051 ft 417 kts 266°
2026-04-24 14:49 41.54975 41.48711 36044 ft 417 kts 266°
2026-04-24 14:49 41.55098 41.41003 36052 ft 418 kts 271°
2026-04-24 14:50 41.55569 41.33254 36043 ft 418 kts 271°
2026-04-24 14:50 41.56025 41.25493 36035 ft 419 kts 271°
2026-04-24 14:51 41.56468 41.17725 36030 ft 420 kts 271°
2026-04-24 14:51 41.56901 41.09983 36026 ft 420 kts 271°
2026-04-24 14:52 41.57332 41.02196 36043 ft 420 kts 271°
2026-04-24 14:52 41.57738 40.94763 36025 ft 422 kts 271°
2026-04-24 14:53 41.58162 40.86913 36022 ft 424 kts 271°
2026-04-24 14:53 41.58581 40.79063 36024 ft 424 kts 271°
2026-04-24 14:54 41.58996 40.71178 36025 ft 425 kts 271°
2026-04-24 14:54 41.59405 40.63315 36028 ft 425 kts 271°
2026-04-24 14:55 41.59739 40.56770 36027 ft 425 kts 271°
2026-04-24 14:55 41.60201 40.47541 36020 ft 426 kts 271°
2026-04-24 14:56 41.60589 40.39696 36025 ft 426 kts 271°
2026-04-24 14:56 41.60974 40.31795 36021 ft 426 kts 271°
2026-04-24 14:57 41.61354 40.23896 36019 ft 426 kts 271°
2026-04-24 14:57 41.61729 40.15986 36011 ft 426 kts 271°
2026-04-24 14:58 41.62097 40.08112 36024 ft 425 kts 271°
2026-04-24 14:58 41.62461 40.00219 36022 ft 425 kts 271°
2026-04-24 14:59 41.62803 39.92665 36025 ft 425 kts 271°
2026-04-24 14:59 41.63153 39.84836 36025 ft 424 kts 271°
2026-04-24 15:00 41.63500 39.76947 36029 ft 425 kts 271°
2026-04-24 15:00 41.63843 39.69035 36034 ft 426 kts 271°
2026-04-24 15:01 41.64182 39.61110 36033 ft 428 kts 271°
2026-04-24 15:01 41.64517 39.53168 36019 ft 429 kts 271°
2026-04-24 15:02 41.64850 39.45205 36023 ft 429 kts 271°
2026-04-24 15:02 41.65177 39.37279 36043 ft 429 kts 271°
2026-04-24 15:03 41.65449 39.30597 36027 ft 430 kts 271°
2026-04-24 15:03 41.65820 39.21298 36021 ft 431 kts 271°
2026-04-24 15:04 41.66134 39.13284 36021 ft 432 kts 271°
2026-04-24 15:04 41.66442 39.05276 36018 ft 432 kts 271°
2026-04-24 15:05 41.66735 38.97510 36020 ft 432 kts 271°
2026-04-24 15:05 41.67032 38.89487 36022 ft 432 kts 271°
2026-04-24 15:06 41.67325 38.81436 36014 ft 432 kts 271°
2026-04-24 15:06 41.67611 38.73420 36012 ft 432 kts 271°
2026-04-24 15:07 41.67892 38.65390 36013 ft 432 kts 271°
2026-04-24 15:07 41.68166 38.57416 36012 ft 432 kts 271°
2026-04-24 15:08 41.68435 38.49393 36014 ft 432 kts 271°
2026-04-24 15:08 41.68699 38.41367 36008 ft 431 kts 271°
2026-04-24 15:09 41.68957 38.33350 36003 ft 431 kts 271°
2026-04-24 15:09 41.69210 38.25317 36006 ft 431 kts 271°
2026-04-24 15:10 41.69457 38.17289 36005 ft 432 kts 271°
2026-04-24 15:10 41.69697 38.09308 36016 ft 432 kts 271°
2026-04-24 15:11 41.69934 38.01271 36004 ft 432 kts 271°
2026-04-24 15:11 41.70156 37.93550 36006 ft 432 kts 271°
2026-04-24 15:12 41.70381 37.85520 36007 ft 432 kts 270°
2026-04-24 15:12 41.70673 37.74832 35999 ft 431 kts 270°
2026-04-24 15:13 41.70141 37.66877 36015 ft 430 kts 257°
2026-04-24 15:13 41.67834 37.58089 36011 ft 433 kts 245°
2026-04-24 15:14 41.65475 37.52117 36014 ft 434 kts 244°
2026-04-24 15:14 41.62609 37.44998 35997 ft 435 kts 244°
2026-04-24 15:15 41.59765 37.37855 36007 ft 435 kts 244°
2026-04-24 15:15 41.56953 37.30746 36012 ft 435 kts 244°
2026-04-24 15:16 41.54123 37.23587 36013 ft 436 kts 244°
2026-04-24 15:16 41.51286 37.16432 35999 ft 436 kts 244°
2026-04-24 15:17 41.48445 37.09285 36012 ft 436 kts 244°
2026-04-24 15:17 41.45594 37.02131 36011 ft 436 kts 244°
2026-04-24 15:18 41.42828 36.95206 36012 ft 437 kts 244°
2026-04-24 15:18 41.39970 36.88069 36004 ft 436 kts 244°
2026-04-24 15:19 41.37106 36.80934 36018 ft 436 kts 244°
2026-04-24 15:19 41.34253 36.73841 36031 ft 437 kts 244°
2026-04-24 15:20 41.31380 36.66713 36023 ft 437 kts 244°
2026-04-24 15:20 41.28596 36.59534 36004 ft 434 kts 252°
2026-04-24 15:21 41.27937 36.55646 36023 ft 432 kts 264°
2026-04-24 15:21 41.27849 36.51646 36026 ft 434 kts 272°
2026-04-24 15:21 41.28294 36.47676 36006 ft 437 kts 284°
2026-04-24 15:21 41.29254 36.43829 36028 ft 438 kts 286°
2026-04-24 15:22 41.31287 36.36170 36017 ft 440 kts 287°
2026-04-24 15:23 41.34301 36.24583 36016 ft 443 kts 286°
2026-04-24 15:23 41.37236 36.12978 36010 ft 442 kts 286°
2026-04-24 15:25 41.41989 35.94001 36008 ft 440 kts 286°
2026-04-24 15:26 41.46800 35.74642 35998 ft 439 kts 286°
2026-04-24 15:27 41.52527 35.51383 35999 ft 440 kts 285°
2026-04-24 15:29 41.59537 35.22599 35963 ft 442 kts 285°
2026-04-24 15:31 41.85570 34.12373 36008 ft 450 kts 287°
2026-04-24 15:33 42.10621 32.90608 35996 ft 452 kts 287°
2026-04-24 15:34 42.27057 32.08551 35988 ft 456 kts 287°
2026-04-24 15:35 42.42535 31.27747 35998 ft 461 kts 287°
2026-04-24 15:36 42.48675 30.94790 35992 ft 464 kts 287°
2026-04-24 15:36 42.58025 30.43565 35969 ft 467 kts 288°
2026-04-24 15:37 42.61620 30.26869 35951 ft 462 kts 299°
2026-04-24 15:37 42.68825 30.12574 35989 ft 456 kts 311°
2026-04-24 15:37 42.81166 29.90946 35953 ft 459 kts 311°
2026-04-24 15:38 42.96674 29.63249 35978 ft 460 kts 311°
2026-04-24 15:38 43.11286 29.36920 35955 ft 460 kts 311°
2026-04-24 15:39 43.26615 29.09046 35941 ft 458 kts 311°
2026-04-24 15:39 43.40691 28.83216 35960 ft 456 kts 311°
2026-04-24 15:40 43.55797 28.55242 35933 ft 455 kts 311°
2026-04-24 15:40 43.70802 28.27189 35913 ft 454 kts 311°
2026-04-24 15:41 43.85393 27.99649 35928 ft 455 kts 311°
2026-04-24 15:41 43.97285 27.77009 35904 ft 455 kts 311°
2026-04-24 15:42 44.11356 27.49993 35900 ft 455 kts 310°
2026-04-24 15:42 44.26149 27.21318 35915 ft 454 kts 310°
2026-04-24 15:43 44.39665 26.94867 35898 ft 452 kts 310°
2026-04-24 15:43 44.54150 26.66247 35891 ft 452 kts 310°
2026-04-24 15:44 44.66239 26.35118 35882 ft 460 kts 300°
2026-04-24 15:44 44.76929 26.02503 35880 ft 459 kts 300°
2026-04-24 15:45 44.85118 25.77276 35867 ft 461 kts 299°
2026-04-24 15:45 44.95753 25.44146 35888 ft 463 kts 299°
2026-04-24 15:46 45.07857 25.12651 35895 ft 460 kts 305°
2026-04-24 15:46 45.20695 24.81959 35910 ft 463 kts 305°
2026-04-24 15:47 45.33735 24.50382 35954 ft 464 kts 305°
2026-04-24 15:47 45.46670 24.18706 35960 ft 462 kts 304°
2026-04-24 15:48 45.58505 23.89406 35954 ft 462 kts 305°
2026-04-24 15:48 45.71250 23.57502 35962 ft 462 kts 304°
2026-04-24 15:49 45.83888 23.25493 35950 ft 461 kts 304°
2026-04-24 15:49 45.96198 22.93959 35995 ft 459 kts 304°
2026-04-24 15:50 46.08569 22.61899 35957 ft 461 kts 304°
2026-04-24 15:50 46.20856 22.29676 36007 ft 461 kts 303°
2026-04-24 15:51 46.32326 21.99246 35996 ft 461 kts 303°
2026-04-24 15:51 46.42561 21.71802 35972 ft 461 kts 303°
2026-04-24 15:52 46.54621 21.39105 35975 ft 461 kts 302°
2026-04-24 15:52 46.66610 21.06197 35971 ft 461 kts 302°
2026-04-24 15:53 46.76227 20.79502 35981 ft 460 kts 302°
2026-04-24 15:53 46.87969 20.46543 35969 ft 459 kts 302°
2026-04-24 15:54 46.99088 20.14953 35977 ft 459 kts 302°
2026-04-24 15:54 47.01969 20.06704 35956 ft 459 kts 302°
2026-04-24 15:55 47.04799 19.98577 35982 ft 459 kts 302°
2026-04-24 15:55 47.07690 19.90247 35988 ft 460 kts 302°
2026-04-24 15:56 47.10591 19.81862 35985 ft 460 kts 302°
2026-04-24 15:56 47.13475 19.73501 35975 ft 461 kts 302°
2026-04-24 15:57 47.16373 19.65071 35975 ft 461 kts 302°
2026-04-24 15:57 47.19252 19.56670 35981 ft 461 kts 302°
2026-04-24 15:58 47.22077 19.48406 35179 ft 470 kts 300°
2026-04-24 15:58 47.23560 19.44067 34341 ft 487 kts 301°
2026-04-24 15:58 47.25077 19.39601 33818 ft 484 kts 301°
2026-04-24 15:59 47.26575 19.35180 32871 ft 482 kts 300°
2026-04-24 15:59 47.28078 19.30744 31757 ft 483 kts 300°
2026-04-24 15:59 47.29584 19.26294 30750 ft 484 kts 300°
2026-04-24 15:59 47.31054 19.21941 30048 ft 478 kts 299°
2026-04-24 16:00 47.32526 19.17578 29211 ft 473 kts 299°
2026-04-24 16:00 47.33985 19.13245 28480 ft 467 kts 299°
2026-04-24 16:00 47.35395 19.08943 27788 ft 462 kts 298°
2026-04-24 16:00 47.36742 19.04670 27099 ft 457 kts 297°
2026-04-24 16:01 47.38049 19.00459 26413 ft 453 kts 297°
2026-04-24 16:01 47.38838 18.97910 26015 ft 451 kts 297°
2026-04-24 16:01 47.40141 18.93707 25362 ft 447 kts 297°
2026-04-24 16:01 47.41437 18.89535 24716 ft 443 kts 297°
2026-04-24 16:02 47.43137 18.84079 23861 ft 440 kts 297°
2026-04-24 16:02 47.44000 18.81309 23385 ft 438 kts 297°
2026-04-24 16:02 47.45267 18.77239 22671 ft 435 kts 297°
2026-04-24 16:02 47.46519 18.73213 21997 ft 431 kts 297°
2026-04-24 16:03 47.47762 18.69207 21355 ft 426 kts 297°
2026-04-24 16:03 47.48992 18.65235 20724 ft 423 kts 297°
2026-04-24 16:03 47.50199 18.61336 20136 ft 419 kts 296°
2026-04-24 16:03 47.51405 18.57430 19531 ft 416 kts 296°
2026-04-24 16:04 47.52601 18.53549 18931 ft 413 kts 296°
2026-04-24 16:04 47.53787 18.49658 18310 ft 411 kts 295°
2026-04-24 16:04 47.54759 18.45736 17635 ft 411 kts 290°
2026-04-24 16:04 47.55611 18.41707 17002 ft 407 kts 289°
2026-04-24 16:05 47.57262 18.33806 15885 ft 399 kts 289°
2026-04-24 16:05 47.58086 18.29881 15344 ft 395 kts 289°
2026-04-24 16:06 47.59714 18.22147 14339 ft 386 kts 290°
2026-04-24 16:06 47.60497 18.18429 13952 ft 378 kts 290°
2026-04-24 16:06 47.62031 18.11137 13082 ft 358 kts 290°
2026-04-24 16:07 47.62752 18.07697 12655 ft 336 kts 290°
2026-04-24 16:07 47.63411 18.04540 12341 ft 314 kts 290°
2026-04-24 16:07 47.64645 17.98674 11329 ft 292 kts 292°
2026-04-24 16:08 47.65307 17.95880 10831 ft 283 kts 291°
2026-04-24 16:08 47.66399 17.90457 10445 ft 284 kts 291°
2026-04-24 16:09 47.67663 17.84717 9548 ft 296 kts 291°
2026-04-24 16:09 47.68296 17.81839 9289 ft 290 kts 291°
2026-04-24 16:09 47.68914 17.79012 9023 ft 285 kts 291°
2026-04-24 16:09 47.69520 17.76231 8750 ft 280 kts 291°
2026-04-24 16:10 47.71266 17.68180 7977 ft 267 kts 291°
2026-04-24 16:11 47.72381 17.63010 7462 ft 259 kts 290°
2026-04-24 16:11 47.72929 17.60471 7214 ft 256 kts 290°
2026-04-24 16:11 47.73461 17.57992 6974 ft 253 kts 290°
2026-04-24 16:12 47.74523 17.53046 6476 ft 248 kts 290°
2026-04-24 16:12 47.75047 17.50601 6217 ft 247 kts 289°
2026-04-24 16:12 47.76097 17.45690 5698 ft 254 kts 289°
2026-04-24 16:13 47.76633 17.43181 5461 ft 256 kts 289°
2026-04-24 16:13 47.77704 17.38148 5063 ft 253 kts 289°
2026-04-24 16:14 47.78745 17.33245 4990 ft 250 kts 289°
2026-04-24 16:14 47.79271 17.30761 4998 ft 254 kts 289°
2026-04-24 16:14 47.80335 17.25735 4979 ft 254 kts 289°
2026-04-24 16:15 47.80686 17.24076 4993 ft 253 kts 289°
2026-04-24 16:15 47.81914 17.18248 4978 ft 252 kts 289°
2026-04-24 16:16 47.82957 17.13292 4993 ft 252 kts 289°
2026-04-24 16:16 47.83482 17.10793 4974 ft 253 kts 289°
2026-04-24 16:17 47.85048 17.03311 4985 ft 253 kts 289°
2026-04-24 16:17 47.86074 16.98399 4995 ft 255 kts 289°
2026-04-24 16:18 47.87124 16.93350 4981 ft 255 kts 289°
2026-04-24 16:18 47.88166 16.88335 4990 ft 253 kts 289°
2026-04-24 16:18 47.88687 16.85822 4996 ft 252 kts 289°
2026-04-24 16:19 47.89718 16.80842 4721 ft 252 kts 289°
2026-04-24 16:19 47.90230 16.78361 4450 ft 246 kts 289°
2026-04-24 16:20 47.91176 16.73769 4028 ft 212 kts 289°
2026-04-24 16:20 47.91995 16.69786 3738 ft 195 kts 289°
2026-04-24 16:20 47.92384 16.67898 3625 ft 186 kts 291°
2026-04-24 16:21 47.93998 16.65262 3261 ft 175 kts 337°
2026-04-24 16:21 47.95193 16.64805 3175 ft 180 kts 343°
2026-04-24 16:21 47.96427 16.64339 3113 ft 183 kts 343°
2026-04-24 16:22 47.97630 16.63862 2893 ft 179 kts 342°
2026-04-24 16:22 47.99952 16.62896 2416 ft 162 kts 341°
2026-04-24 16:22 48.00977 16.62464 2220 ft 151 kts 341°
2026-04-24 16:23 48.01955 16.62050 2044 ft 140 kts 340°
2026-04-24 16:23 48.02858 16.61653 1863 ft 133 kts 340°
2026-04-24 16:23 48.03756 16.61295 1745 ft 137 kts 341°
2026-04-24 16:24 48.05660 16.60486 1327 ft 147 kts 343°
2026-04-24 16:24 48.06644 16.60064 1094 ft 145 kts 343°
2026-04-24 16:24 48.07595 16.59689 858 ft 136 kts 339°
2026-04-24 16:24 48.08494 16.59286 722 ft 139 kts 338°
2026-04-24 16:25 48.09429 16.58880 627 ft 132 kts 340°
2026-04-24 16:25 48.10192 16.58570 627 ft 92 kts 344°
2026-04-24 16:25 48.10679 16.58366 624 ft 60 kts 344°
2026-04-24 16:26 48.11029 16.58098 630 ft 20 kts 302°
2026-04-24 16:26 48.11075 16.57969 626 ft 12 kts 297°
2026-04-24 16:26 48.11153 16.57740 628 ft 12 kts 296°
2026-04-24 16:27 48.11189 16.57626 627 ft 12 kts 295°
2026-04-24 16:27 48.11226 16.57510 623 ft 12 kts 295°
2026-04-24 16:27 48.11262 16.57393 630 ft 12 kts 295°
2026-04-24 16:27 48.11299 16.57278 627 ft 12 kts 297°
2026-04-24 16:28 48.11337 16.57165 626 ft 12 kts 297°
2026-04-24 16:28 48.11375 16.57049 630 ft 12 kts 296°
2026-04-24 16:28 48.11463 16.56877 628 ft 10 kts
2026-04-24 16:29 48.11527 16.56913 624 ft 10 kts 16°
2026-04-24 16:29 48.11586 16.56875 628 ft 10 kts 311°
2026-04-24 16:29 48.11649 16.56706 624 ft 8 kts 301°
2026-04-24 16:30 48.11691 16.56706 623 ft 3 kts 30°
2026-04-24 16:30 48.11710 16.56723 625 ft 3 kts 28°
2026-04-24 16:30 48.11718 16.56729 627 ft 0 kts 28°